Weather History for KHST - December, 2013

Change the Weather History Date:

Thursday, December 19, 2013

  Actual Average Record
Temperature  
Mean Temperature 68 °F -  
Max Temperature 77 °F 76 °F 87 °F (1961)
Min Temperature 59 °F 54 °F 30 °F (1950)
Cooling Degree Days 3    
Growing Degree Days 18 (Base 50)    
Moisture  
Dew Point 61 °F    
Average Humidity 73    
Maximum Humidity 91    
Minimum Humidity 58    
Precipitation  
Precipitation 0.00 in - - ()
Sea Level Pressure  
Sea Level Pressure 30.19 in    
Wind  
Wind Speed 9 mph (ENE)    
Max Wind Speed 17 mph    
Max Gust Speed 23 mph    
Visibility 10 miles    
Events Rain    
Averages and records for this station are not official NWS values.
T = Trace of Precipitation, MM = Missing Value Source: NWS Daily Summary

Daily Weather History Graph

Daily Weather History Graph

Search for Another Location

Airport or City:

Trip Planner

Search our weather history database for the weather conditions in past years. The results will help you decide how hot, cold, wet, or windy it might be!

Date:

Astronomy

Dec. 19, 2013 Rise Set
Actual Time 7:02 AM EST 5:35 PM EST
Civil Twilight 6:37 AM EST 6:00 PM EST
Nautical Twilight 6:08 AM EST 6:29 PM EST
Astronomical Twilight 5:40 AM EST 6:57 PM EST
Moon 7:47 PM EST (12/19) 8:30 AM EST (12/19)
Length of Visible Light 11h 23m
Length of Day
10h 33m
Waning Gibbous, 95% of the Moon is Illuminated
Dec 19
Waning Gibbous
Dec 25
Last Quarter
Jan 1
New
Jan 7
First Quarter
Jan 15
Full

Hourly Weather History & Observations

Time (EST) Temp. Dew Point Humidity Pressure Visibility Wind Dir Wind Speed Gust Speed Precip Events Conditions
12:58 AM 61.7 °F 56.3 °F 82% 30.22 in 10.0 mi North 5.8 mph - N/A   Scattered Clouds
1:58 AM 61.0 °F 56.3 °F 85% 30.20 in 10.0 mi North 5.8 mph - N/A   Clear
2:58 AM 60.3 °F 56.3 °F 87% 30.20 in 10.0 mi North 5.8 mph - N/A   Scattered Clouds
3:58 AM 59.7 °F 56.3 °F 88% 30.20 in 10.0 mi North 4.6 mph - N/A   Clear
4:58 AM 59.4 °F 56.3 °F 90% 30.20 in 10.0 mi North 4.6 mph - N/A   Clear
5:58 AM 59.4 °F 56.8 °F 91% 30.20 in 10.0 mi North 5.8 mph - N/A   Scattered Clouds
6:58 AM 59.4 °F 56.7 °F 91% 30.21 in 10.0 mi North 2.3 mph - N/A   Mostly Cloudy
7:58 AM 61.9 °F 57.7 °F 86% 30.22 in 10.0 mi North 4.6 mph - N/A   Mostly Cloudy
8:58 AM 70.7 °F 60.6 °F 70% 30.23 in 10.0 mi ENE 10.4 mph - N/A   Scattered Clouds
9:58 AM 75.4 °F 60.8 °F 60% 30.24 in 10.0 mi East 15.0 mph 20.7 mph N/A   Partly Cloudy
10:58 AM 76.5 °F 61.5 °F 60% 30.23 in 10.0 mi ENE 16.1 mph - N/A   Clear
11:58 AM 77.0 °F 61.2 °F 58% 30.22 in 10.0 mi East 17.3 mph - N/A   Clear
12:58 PM 77.4 °F 61.5 °F 58% 30.19 in 10.0 mi East 17.3 mph 23.0 mph N/A   Clear
1:23 PM 77.0 °F 62.6 °F 61% 30.17 in 10.0 mi East 13.8 mph - N/A Rain Light Rain
1:36 PM 77.0 °F 62.6 °F 61% 30.17 in 10.0 mi East 12.7 mph 19.6 mph N/A   Clear
1:46 PM 77.0 °F 62.6 °F 61% 30.17 in 10.0 mi East 12.7 mph - N/A Rain Light Rain
1:55 PM 77.0 °F 62.6 °F 61% 30.16 in 10.0 mi East 17.3 mph - N/A   Clear
1:58 PM 77.5 °F 62.4 °F 59% 30.17 in 10.0 mi East 16.1 mph - 0.00 in   Clear
2:58 PM 77.0 °F 62.2 °F 60% 30.16 in 10.0 mi ENE 12.7 mph - N/A   Clear
3:58 PM 76.3 °F 62.8 °F 63% 30.16 in 10.0 mi East 12.7 mph - N/A   Partly Cloudy
4:58 PM 74.3 °F 62.6 °F 67% 30.16 in 10.0 mi ENE 10.4 mph - N/A   Clear
5:58 PM 71.8 °F 63.0 °F 74% 30.17 in 10.0 mi ENE 6.9 mph - N/A   Clear
6:58 PM 72.0 °F 63.1 °F 74% 30.17 in 10.0 mi East 6.9 mph - N/A   Clear
7:58 PM 71.8 °F 64.6 °F 78% 30.18 in 10.0 mi East 8.1 mph - N/A   Clear
8:58 PM 72.0 °F 65.1 °F 79% 30.19 in 10.0 mi ENE 9.2 mph - N/A   Scattered Clouds
9:58 PM 72.1 °F 66.0 °F 81% 30.19 in 10.0 mi East 8.1 mph - N/A   Clear
10:58 PM 73.0 °F 66.7 °F 81% 30.18 in 10.0 mi East 9.2 mph - N/A   Scattered Clouds
11:58 PM 73.0 °F 67.1 °F 82% 30.16 in 10.0 mi East 10.4 mph - N/A   Partly Cloudy